| time (UTC) | temp C | wind direction | speed KPH | gust KPH | rain 1hr cm | rain 24hr cm | rain mn cm | humidity % | barometer mb |
| 20260506180059 | 8 | 317 | 0.0 | 0.0 | 0.00 | 0.00 | 0.00 | 34 | 1009.1 |
| 20260506175602 | 9 | 311 | 0.0 | 0.0 | 0.00 | 0.00 | 0.00 | 34 | 1009.0 |
| 20260506175058 | 9 | 247 | 0.0 | 0.0 | 0.00 | 0.00 | 0.00 | 33 | 1009.0 |
| 20260506174610 | 9 | 13 | 0.0 | 1.6 | 0.00 | 0.00 | 0.00 | 32 | 1009.0 |
| 20260506174101 | 9 | 290 | 0.0 | 1.6 | 0.00 | 0.00 | 0.00 | 32 | 1008.9 |
| 20260506173558 | 9 | 249 | 0.0 | 1.6 | 0.00 | 0.00 | 0.00 | 32 | 1008.9 |
| 20260506173058 | 10 | 268 | 0.0 | 0.0 | 0.00 | 0.00 | 0.00 | 31 | 1008.8 |
| 20260506172557 | 10 | 275 | 0.0 | 0.0 | 0.00 | 0.00 | 0.00 | 32 | 1008.7 |
| 20260506172057 | 10 | 318 | 0.0 | 0.0 | 0.00 | 0.00 | 0.00 | 31 | 1008.8 |
| 20260506171605 | 10 | 229 | 0.0 | 3.2 | 0.00 | 0.00 | 0.00 | 30 | 1008.7 |
| 20260506171157 | 10 | 245 | 0.0 | 3.2 | 0.00 | 0.00 | 0.00 | 30 | 1008.6 |
| 20260506170556 | 11 | 261 | 0.0 | 1.6 | 0.00 | 0.00 | 0.00 | 28 | 1008.6 |
| 20260506170100 | 11 | 283 | 0.0 | 0.0 | 0.00 | 0.00 | 0.00 | 29 | 1008.7 |
| 20260506165600 | 11 | 267 | 0.0 | 0.0 | 0.00 | 0.00 | 0.00 | 28 | 1008.7 |
| 20260506165056 | 11 | 288 | 0.0 | 0.0 | 0.00 | 0.00 | 0.00 | 27 | 1008.6 |
| 20260506164559 | 11 | 301 | 0.0 | 4.8 | 0.00 | 0.00 | 0.00 | 26 | 1008.6 |
| 20260506164055 | 11 | 313 | 0.0 | 4.8 | 0.00 | 0.00 | 0.00 | 28 | 1008.6 |
| 20260506163555 | 11 | 304 | 0.0 | 12.9 | 0.00 | 0.00 | 0.00 | 28 | 1008.6 |
| 20260506163116 | 11 | 332 | 0.0 | 12.9 | 0.00 | 0.00 | 0.00 | 28 | 1008.6 |
| 20260506162554 | 11 | 314 | 0.0 | 12.9 | 0.00 | 0.00 | 0.00 | 28 | 1008.5 |
| 20260506162054 | 11 | 258 | 0.0 | 12.9 | 0.00 | 0.00 | 0.00 | 28 | 1008.5 |
| 20260506161554 | 11 | 275 | 0.0 | 6.4 | 0.00 | 0.00 | 0.00 | 30 | 1008.5 |
| 20260506161053 | 11 | 340 | 0.0 | 6.4 | 0.00 | 0.00 | 0.00 | 28 | 1008.5 |
| 20260506160553 | 11 | 336 | 0.0 | 22.5 | 0.00 | 0.00 | 0.00 | 30 | 1008.5 |
| 20260506160053 | 11 | 286 | 0.0 | 22.5 | 0.00 | 0.00 | 0.00 | 30 | 1008.4 |
| 20260506155552 | 12 | 263 | 0.0 | 12.9 | 0.00 | 0.00 | 0.00 | 29 | 1008.5 |
| 20260506155053 | 11 | 325 | 0.0 | 12.9 | 0.00 | 0.00 | 0.00 | 31 | 1008.5 |
| 20260506154554 | 11 | 291 | 0.0 | 11.3 | 0.00 | 0.00 | 0.00 | 30 | 1008.3 |
| 20260506154055 | 11 | 303 | 0.0 | 14.5 | 0.00 | 0.00 | 0.00 | 31 | 1008.3 |
| 20260506153552 | 11 | 269 | 0.0 | 16.1 | 0.00 | 0.00 | 0.00 | 30 | 1008.3 |
| 20260506153057 | 11 | 347 | 0.0 | 16.1 | 0.00 | 0.00 | 0.00 | 29 | 1008.3 |
| 20260506152552 | 11 | 284 | 0.0 | 11.3 | 0.00 | 0.00 | 0.00 | 32 | 1008.3 |
| 20260506152050 | 11 | 277 | 0.0 | 8.0 | 0.00 | 0.00 | 0.00 | 29 | 1008.2 |
| 20260506151547 | 11 | 241 | 0.0 | 8.0 | 0.00 | 0.00 | 0.00 | 30 | 1008.2 |
| 20260506151047 | 12 | 320 | 0.0 | 4.8 | 0.00 | 0.00 | 0.00 | 30 | 1008.1 |
| 20260506150546 | 12 | 300 | 0.0 | 4.8 | 0.00 | 0.00 | 0.00 | 29 | 1008.2 |
| 20260506150045 | 12 | 291 | 0.0 | 17.7 | 0.00 | 0.00 | 0.00 | 29 | 1008.3 |
| 20260506145549 | 12 | 259 | 1.6 | 17.7 | 0.00 | 0.00 | 0.00 | 27 | 1008.3 |
| 20260506145044 | 12 | 294 | 0.0 | 8.0 | 0.00 | 0.00 | 0.00 | 29 | 1008.3 |
| 20260506144546 | 13 | 276 | 0.0 | 6.4 | 0.00 | 0.00 | 0.00 | 29 | 1008.4 |
| 20260506144042 | 13 | 261 | 0.0 | 6.4 | 0.00 | 0.00 | 0.00 | 28 | 1008.3 |
| 20260506143542 | 13 | 281 | 0.0 | 3.2 | 0.00 | 0.00 | 0.00 | 26 | 1008.4 |
| 20260506143042 | 13 | 246 | 0.0 | 3.2 | 0.00 | 0.00 | 0.00 | 25 | 1008.3 |
| 20260506142545 | 13 | 286 | 0.0 | 11.3 | 0.00 | 0.00 | 0.00 | 26 | 1008.3 |
| 20260506142040 | 13 | 265 | 0.0 | 11.3 | 0.00 | 0.00 | 0.00 | 25 | 1008.3 |
| 20260506141540 | 13 | 283 | 0.0 | 3.2 | 0.00 | 0.00 | 0.00 | 24 | 1008.2 |
| 20260506141039 | 13 | 308 | 0.0 | 11.3 | 0.00 | 0.00 | 0.00 | 26 | 1008.3 |
| 20260506140638 | 13 | 242 | 1.6 | 11.3 | 0.00 | 0.00 | 0.00 | 26 | 1008.2 |
| 20260506140037 | 13 | 210 | 0.0 | 4.8 | 0.00 | 0.00 | 0.00 | 26 | 1008.2 |
| 20260506135536 | 13 | 253 | 0.0 | 3.2 | 0.00 | 0.00 | 0.00 | 25 | 1008.4 |
| 20260506135034 | 13 | 231 | 0.0 | 1.6 | 0.00 | 0.00 | 0.00 | 28 | 1008.4 |
| 20260506134533 | 12 | 259 | 0.0 | 1.6 | 0.00 | 0.00 | 0.00 | 29 | 1008.4 |
| 20260506134032 | 12 | 329 | 0.0 | 6.4 | 0.00 | 0.00 | 0.00 | 28 | 1008.3 |
| 20260506133532 | 12 | 229 | 0.0 | 9.7 | 0.00 | 0.00 | 0.00 | 29 | 1008.4 |
| 20260506133033 | 12 | 5 | 0.0 | 20.9 | 0.00 | 0.00 | 0.00 | 27 | 1008.4 |
| 20260506132529 | 12 | 343 | 1.6 | 20.9 | 0.00 | 0.00 | 0.00 | 28 | 1008.4 |
| 20260506132031 | 11 | 276 | 0.0 | 4.8 | 0.00 | 0.00 | 0.00 | 27 | 1008.6 |
| 20260506131535 | 11 | 281 | 0.0 | 4.8 | 0.00 | 0.00 | 0.00 | 28 | 1008.6 |
| 20260506131028 | 11 | 267 | 0.0 | 4.8 | 0.00 | 0.00 | 0.00 | 27 | 1008.5 |
| 20260506130529 | 11 | 265 | 0.0 | 8.0 | 0.00 | 0.00 | 0.00 | 26 | 1008.4 |
| 20260506130026 | 11 | 344 | 0.0 | 8.0 | 0.00 | 0.00 | 0.00 | 30 | 1008.5 |
| 20260506125526 | 11 | 323 | 0.0 | 4.8 | 0.00 | 0.00 | 0.00 | 28 | 1008.5 |
| 20260506125025 | 12 | 271 | 0.0 | 1.6 | 0.00 | 0.00 | 0.00 | 30 | 1008.5 |
| 20260506124525 | 11 | 259 | 0.0 | 14.5 | 0.00 | 0.00 | 0.00 | 28 | 1008.5 |
| 20260506124026 | 11 | 321 | 0.0 | 14.5 | 0.00 | 0.00 | 0.00 | 28 | 1008.6 |
| 20260506123525 | 11 | 289 | 0.0 | 6.4 | 0.00 | 0.00 | 0.00 | 29 | 1008.6 |
| 20260506123025 | 11 | 355 | 0.0 | 12.9 | 0.00 | 0.00 | 0.00 | 28 | 1008.6 |
| 20260506122527 | 11 | 346 | 0.0 | 14.5 | 0.00 | 0.00 | 0.00 | 27 | 1008.6 |
| 20260506122023 | 11 | 327 | 0.0 | 14.5 | 0.00 | 0.00 | 0.00 | 30 | 1008.8 |
| 20260506121521 | 11 | 243 | 0.0 | 4.8 | 0.00 | 0.00 | 0.00 | 28 | 1008.8 |
| 20260506121019 | 11 | 269 | 0.0 | 9.7 | 0.00 | 0.00 | 0.00 | 27 | 1008.9 |
| 20260506120519 | 11 | 355 | 0.0 | 9.7 | 0.00 | 0.00 | 0.00 | 29 | 1008.9 |
| 20260506120019 | 11 | 350 | 0.0 | 8.0 | 0.00 | 0.00 | 0.00 | 29 | 1008.9 |
| 20260506115519 | 11 | 327 | 0.0 | 19.3 | 0.00 | 0.00 | 0.00 | 29 | 1008.9 |
| 20260506115016 | 11 | 324 | 0.0 | 0.0 | 0.00 | 0.00 | 0.00 | 29 | 1008.9 |
| 20260506114516 | 11 | 360 | 0.0 | 14.5 | 0.00 | 0.00 | 0.00 | 31 | 1008.9 |
| 20260506114014 | 10 | 5 | 1.6 | 14.5 | 0.00 | 0.00 | 0.00 | 28 | 1008.9 |
| 20260506113514 | 10 | 320 | 0.0 | 9.7 | 0.00 | 0.00 | 0.00 | 30 | 1009.0 |
| 20260506113013 | 10 | 355 | 0.0 | 3.2 | 0.00 | 0.00 | 0.00 | 30 | 1009.0 |
| 20260506112516 | 10 | 312 | 0.0 | 3.2 | 0.00 | 0.00 | 0.00 | 29 | 1009.0 |
| 20260506112011 | 10 | 351 | 0.0 | 14.5 | 0.00 | 0.00 | 0.00 | 32 | 1009.1 |
| 20260506111520 | 10 | 343 | 0.0 | 12.9 | 0.00 | 0.00 | 0.00 | 31 | 1009.2 |
| 20260506111009 | 10 | 124 | 0.0 | 12.9 | 0.00 | 0.00 | 0.00 | 32 | 1009.2 |
| 20260506110508 | 10 | 355 | 0.0 | 0.0 | 0.00 | 0.00 | 0.00 | 31 | 1009.3 |
| 20260506110010 | 10 | 65 | 0.0 | 0.0 | 0.00 | 0.00 | 0.00 | 30 | 1009.4 |
| 20260506105508 | 10 | 329 | 0.0 | 3.2 | 0.00 | 0.00 | 0.00 | 32 | 1009.4 |
| 20260506105011 | 10 | 355 | 0.0 | 3.2 | 0.00 | 0.00 | 0.00 | 30 | 1009.4 |
| 20260506104505 | 10 | 5 | 0.0 | 1.6 | 0.00 | 0.00 | 0.00 | 29 | 1009.4 |
| 20260506104007 | 10 | 92 | 0.0 | 1.6 | 0.00 | 0.00 | 0.00 | 33 | 1009.4 |
| 20260506103503 | 10 | 328 | 0.0 | 0.0 | 0.00 | 0.00 | 0.00 | 31 | 1009.4 |
| 20260506103003 | 10 | 340 | 0.0 | 6.4 | 0.00 | 0.00 | 0.00 | 34 | 1009.5 |
| 20260506102503 | 10 | 273 | 0.0 | 6.4 | 0.00 | 0.00 | 0.00 | 33 | 1009.6 |
| 20260506102101 | 10 | 16 | 0.0 | 0.0 | 0.00 | 0.00 | 0.00 | 33 | 1009.7 |
| 20260506101632 | 10 | 136 | 0.0 | 0.0 | 0.00 | 0.00 | 0.00 | 36 | 1009.7 |
| 20260506101100 | 10 | 312 | 0.0 | 1.6 | 0.00 | 0.00 | 0.00 | 32 | 1009.8 |
| 20260506100557 | 10 | 223 | 0.0 | 1.6 | 0.00 | 0.00 | 0.00 | 34 | 1009.8 |
| 20260506100058 | 10 | 277 | 0.0 | 0.0 | 0.00 | 0.00 | 0.00 | 36 | 1009.8 |
| 20260506095556 | 10 | 285 | 0.0 | 0.0 | 0.00 | 0.00 | 0.00 | 36 | 1009.9 |
| 20260506095055 | 10 | 82 | 0.0 | 0.0 | 0.00 | 0.00 | 0.00 | 40 | 1009.9 |
| 20260506094557 | 10 | 252 | 0.0 | 0.0 | 0.00 | 0.00 | 0.00 | 36 | 1009.9 |
| 20260506094051 | 9 | 218 | 0.0 | 6.4 | 0.00 | 0.00 | 0.00 | 37 | 1009.9 |
| 20260506093552 | 9 | 234 | 0.0 | 6.4 | 0.00 | 0.00 | 0.00 | 38 | 1009.9 |
| 20260506093053 | 9 | 13 | 0.0 | 6.4 | 0.00 | 0.00 | 0.00 | 37 | 1010.0 |
| 20260506092548 | 9 | 259 | 0.0 | 0.0 | 0.00 | 0.00 | 0.00 | 39 | 1010.1 |
| 20260506092047 | 9 | 221 | 0.0 | 0.0 | 0.00 | 0.00 | 0.00 | 37 | 1010.1 |
| 20260506091546 | 9 | 41 | 0.0 | 6.4 | 0.00 | 0.00 | 0.00 | 36 | 1010.2 |
| 20260506091045 | 9 | 238 | 0.0 | 6.4 | 0.00 | 0.00 | 0.00 | 38 | 1010.2 |
| 20260506090544 | 9 | 218 | 0.0 | 0.0 | 0.00 | 0.00 | 0.00 | 40 | 1010.2 |
| 20260506090056 | 8 | 238 | 0.0 | 3.2 | 0.00 | 0.00 | 0.00 | 39 | 1010.2 |
| 20260506085543 | 8 | 216 | 0.0 | 0.0 | 0.00 | 0.00 | 0.00 | 41 | 1010.2 |
| 20260506085041 | 8 | 202 | 0.0 | 0.0 | 0.00 | 0.00 | 0.00 | 39 | 1010.2 |
| 20260506084545 | 8 | 214 | 0.0 | 0.0 | 0.00 | 0.00 | 0.00 | 37 | 1010.2 |
| 20260506084040 | 8 | 229 | 0.0 | 0.0 | 0.00 | 0.00 | 0.00 | 39 | 1010.2 |
| 20260506083540 | 8 | 246 | 0.0 | 1.6 | 0.00 | 0.00 | 0.00 | 39 | 1010.3 |
| 20260506083038 | 8 | 227 | 0.0 | 1.6 | 0.00 | 0.00 | 0.00 | 41 | 1010.4 |
| 20260506082538 | 8 | 265 | 0.0 | 0.0 | 0.00 | 0.00 | 0.00 | 38 | 1010.4 |
| 20260506082034 | 8 | 277 | 0.0 | 0.0 | 0.00 | 0.00 | 0.00 | 44 | 1010.3 |
| 20260506081537 | 7 | 205 | 0.0 | 0.0 | 0.00 | 0.00 | 0.00 | 42 | 1010.4 |
| 20260506081031 | 7 | 227 | 0.0 | 4.8 | 0.00 | 0.00 | 0.00 | 47 | 1010.4 |
| 20260506080530 | 7 | 206 | 0.0 | 4.8 | 0.00 | 0.00 | 0.00 | 45 | 1010.5 |
| 20260506073526 | 6 | 337 | 0.0 | 0.0 | 0.00 | 0.00 | 0.00 | 50 | 1010.7 |
| 20260506073020 | 6 | 337 | 0.0 | 0.0 | 0.00 | 0.00 | 0.00 | 50 | 1010.8 |
| 20260506072519 | 5 | 337 | 0.0 | 0.0 | 0.00 | 0.00 | 0.00 | 50 | 1010.8 |
| 20260506072018 | 5 | 337 | 0.0 | 0.0 | 0.00 | 0.00 | 0.00 | 51 | 1010.8 |
| 20260506071516 | 5 | 329 | 0.0 | 0.0 | 0.00 | 0.00 | 0.00 | 50 | 1010.8 |
| 20260506071014 | 5 | 355 | 0.0 | 0.0 | 0.00 | 0.00 | 0.00 | 53 | 1010.8 |
| 20260506070512 | 5 | 33 | 0.0 | 0.0 | 0.00 | 0.00 | 0.00 | 53 | 1010.8 |
| 20260506062059 | 2 | 19 | 0.0 | 0.0 | 0.00 | 0.00 | 0.00 | 65 | 1010.9 |
| 20260506061557 | 2 | 5 | 0.0 | 0.0 | 0.00 | 0.00 | 0.00 | 65 | 1010.8 |
| 20260506061055 | 1 | 13 | 0.0 | 0.0 | 0.00 | 0.00 | 0.00 | 69 | 1010.9 |
| 20260506060555 | 1 | 360 | 0.0 | 0.0 | 0.00 | 0.00 | 0.00 | 68 | 1010.8 |
| 20260506051046 | -2 | 278 | 0.0 | 0.0 | 0.00 | 0.00 | 0.00 | 78 | 1011.1 |
| 20260506050548 | -2 | 278 | 0.0 | 0.0 | 0.00 | 0.00 | 0.00 | 79 | 1011.0 |
| 20260506050146 | -2 | 304 | 0.0 | 0.0 | 0.00 | 0.00 | 0.00 | 81 | 1011.1 |
| 20260506045044 | -2 | 304 | 0.0 | 0.0 | 0.00 | 0.00 | 0.00 | 80 | 1011.1 |
| 20260506044546 | -2 | 304 | 0.0 | 0.0 | 0.00 | 0.00 | 0.00 | 80 | 1011.1 |
| 20260506044044 | -2 | 304 | 0.0 | 0.0 | 0.00 | 0.00 | 0.00 | 79 | 1011.1 |
| 20260506043543 | -2 | 304 | 0.0 | 0.0 | 0.00 | 0.00 | 0.00 | 79 | 1011.1 |
| 20260506043043 | -2 | 304 | 0.0 | 0.0 | 0.00 | 0.00 | 0.00 | 79 | 1011.1 |
| 20260506042543 | -2 | 304 | 0.0 | 0.0 | 0.00 | 0.00 | 0.00 | 79 | 1011.1 |
| 20260506042044 | -2 | 304 | 0.0 | 0.0 | 0.00 | 0.00 | 0.00 | 78 | 1011.1 |
| 20260506041556 | -2 | 304 | 0.0 | 0.0 | 0.00 | 0.00 | 0.00 | 79 | 1011.0 |
| 20260506041041 | -2 | 319 | 0.0 | 0.0 | 0.00 | 0.00 | 0.00 | 82 | 1011.0 |
| 20260506040539 | -3 | 52 | 0.0 | 0.0 | 0.00 | 0.00 | 0.00 | 83 | 1011.0 |
| 20260506040039 | -2 | 52 | 0.0 | 0.0 | 0.00 | 0.00 | 0.00 | 82 | 1011.0 |
| 20260506035541 | -2 | 52 | 0.0 | 0.0 | 0.00 | 0.00 | 0.00 | 81 | 1010.9 |
| 20260506035039 | -2 | 52 | 0.0 | 0.0 | 0.00 | 0.00 | 0.00 | 81 | 1010.9 |
| 20260506034549 | -2 | 52 | 0.0 | 0.0 | 0.00 | 0.00 | 0.00 | 81 | 1010.9 |
| 20260506034037 | -2 | 52 | 0.0 | 0.0 | 0.00 | 0.00 | 0.00 | 81 | 1010.9 |
| 20260506033537 | -2 | 52 | 0.0 | 0.0 | 0.00 | 0.00 | 0.00 | 82 | 1010.9 |
| 20260506033038 | -2 | 52 | 0.0 | 0.0 | 0.00 | 0.00 | 0.00 | 82 | 1010.9 |
| 20260506032538 | -2 | 52 | 0.0 | 0.0 | 0.00 | 0.00 | 0.00 | 82 | 1010.9 |
| 20260506032035 | -3 | 52 | 0.0 | 0.0 | 0.00 | 0.00 | 0.00 | 82 | 1010.8 |
| 20260506031534 | -2 | 52 | 0.0 | 0.0 | 0.00 | 0.00 | 0.00 | 81 | 1010.8 |
| 20260506031035 | -2 | 52 | 0.0 | 0.0 | 0.00 | 0.00 | 0.00 | 81 | 1010.9 |
| 20260506030532 | -2 | 52 | 0.0 | 0.0 | 0.00 | 0.00 | 0.00 | 81 | 1010.8 |
| 20260506030036 | -2 | 52 | 0.0 | 0.0 | 0.00 | 0.00 | 0.00 | 81 | 1010.8 |
| 20260506025533 | -2 | 52 | 0.0 | 0.0 | 0.00 | 0.00 | 0.00 | 80 | 1010.8 |
| 20260506025030 | -2 | 52 | 0.0 | 0.0 | 0.00 | 0.00 | 0.00 | 80 | 1010.8 |
| 20260506024530 | -2 | 52 | 0.0 | 0.0 | 0.00 | 0.00 | 0.00 | 79 | 1010.8 |
| 20260506024028 | -2 | 52 | 0.0 | 0.0 | 0.00 | 0.00 | 0.00 | 79 | 1010.8 |
| 20260506023526 | -2 | 52 | 0.0 | 0.0 | 0.00 | 0.00 | 0.00 | 79 | 1010.8 |
| 20260506023026 | -2 | 52 | 0.0 | 0.0 | 0.00 | 0.00 | 0.00 | 78 | 1010.8 |
| 20260506022525 | -2 | 52 | 0.0 | 0.0 | 0.00 | 0.00 | 0.00 | 78 | 1010.7 |
| 20260506022025 | -1 | 52 | 0.0 | 0.0 | 0.00 | 0.00 | 0.00 | 77 | 1010.8 |
| 20260506021524 | -1 | 52 | 0.0 | 0.0 | 0.00 | 0.00 | 0.00 | 76 | 1010.8 |
| 20260506021024 | -1 | 52 | 0.0 | 0.0 | 0.00 | 0.00 | 0.00 | 76 | 1010.8 |
| 20260506020526 | -1 | 52 | 0.0 | 0.0 | 0.00 | 0.00 | 0.00 | 77 | 1010.8 |
| 20260506020023 | -1 | 52 | 0.0 | 0.0 | 0.00 | 0.00 | 0.00 | 77 | 1010.7 |
| 20260506015522 | -1 | 52 | 0.0 | 0.0 | 0.00 | 0.00 | 0.00 | 76 | 1010.8 |
| 20260506015022 | -1 | 52 | 0.0 | 0.0 | 0.00 | 0.00 | 0.00 | 77 | 1010.7 |
| 20260506014522 | -1 | 52 | 0.0 | 0.0 | 0.00 | 0.00 | 0.00 | 78 | 1010.7 |
| 20260506014020 | -1 | 52 | 0.0 | 0.0 | 0.00 | 0.00 | 0.00 | 76 | 1010.6 |
| 20260506013519 | -1 | 52 | 0.0 | 0.0 | 0.00 | 0.00 | 0.00 | 76 | 1010.6 |
| 20260506013035 | -1 | 52 | 0.0 | 0.0 | 0.00 | 0.00 | 0.00 | 76 | 1010.7 |
| 20260506012518 | -1 | 52 | 0.0 | 0.0 | 0.00 | 0.00 | 0.00 | 75 | 1010.6 |
| 20260506012017 | -1 | 52 | 0.0 | 0.0 | 0.00 | 0.00 | 0.00 | 74 | 1010.5 |
| 20260506011524 | -1 | 52 | 0.0 | 0.0 | 0.00 | 0.00 | 0.00 | 74 | 1010.5 |
| 20260506011014 | -1 | 52 | 0.0 | 0.0 | 0.00 | 0.00 | 0.00 | 73 | 1010.5 |
| 20260506010513 | 0 | 52 | 0.0 | 0.0 | 0.00 | 0.00 | 0.00 | 72 | 1010.4 |
| 20260506010013 | 0 | 52 | 0.0 | 0.0 | 0.00 | 0.00 | 0.00 | 70 | 1010.4 |
| 20260506005511 | 0 | 52 | 0.0 | 0.0 | 0.00 | 0.00 | 0.00 | 70 | 1010.4 |
| 20260506005013 | 0 | 52 | 0.0 | 0.0 | 0.00 | 0.00 | 0.00 | 71 | 1010.4 |
| 20260506004511 | 0 | 52 | 0.0 | 0.0 | 0.00 | 0.00 | 0.00 | 71 | 1010.3 |
| 20260506004011 | 0 | 52 | 0.0 | 0.0 | 0.00 | 0.00 | 0.00 | 71 | 1010.3 |
| 20260506003509 | 0 | 52 | 0.0 | 0.0 | 0.00 | 0.00 | 0.00 | 70 | 1010.3 |
| 20260506003008 | 0 | 52 | 0.0 | 0.0 | 0.00 | 0.00 | 0.00 | 69 | 1010.3 |
| 20260506002507 | 0 | 53 | 0.0 | 0.0 | 0.00 | 0.00 | 0.00 | 68 | 1010.3 |
| 20260506002007 | 0 | 34 | 0.0 | 0.0 | 0.00 | 0.00 | 0.00 | 68 | 1010.2 |
| 20260506001506 | 0 | 34 | 0.0 | 0.0 | 0.00 | 0.00 | 0.00 | 67 | 1010.2 |
| 20260506001006 | 0 | 34 | 0.0 | 0.0 | 0.00 | 0.00 | 0.00 | 67 | 1010.2 |
| 20260506000504 | 0 | 34 | 0.0 | 0.0 | 0.00 | 0.00 | 0.00 | 68 | 1010.2 |
| 20260506000004 | 0 | 44 | 0.0 | 0.0 | 0.00 | 0.00 | 0.00 | 69 | 1010.2 |
| 20260505235503 | 0 | 44 | 0.0 | 0.0 | 0.00 | 0.00 | 0.00 | 71 | 1010.2 |
| 20260505235003 | 0 | 44 | 0.0 | 0.0 | 0.00 | 0.00 | 0.00 | 70 | 1010.2 |
| 20260505234503 | 0 | 44 | 0.0 | 0.0 | 0.00 | 0.00 | 0.00 | 70 | 1010.2 |
| 20260505234002 | 0 | 44 | 0.0 | 0.0 | 0.00 | 0.00 | 0.00 | 68 | 1010.2 |
| 20260505233559 | 0 | 44 | 0.0 | 0.0 | 0.00 | 0.00 | 0.00 | 67 | 1010.2 |
| 20260505233059 | 0 | 44 | 0.0 | 0.0 | 0.00 | 0.00 | 0.00 | 67 | 1010.1 |
| 20260505232559 | 0 | 44 | 0.0 | 0.0 | 0.00 | 0.00 | 0.00 | 67 | 1010.1 |
| 20260505232059 | 0 | 44 | 0.0 | 0.0 | 0.00 | 0.00 | 0.00 | 66 | 1010.0 |
| 20260505231558 | 0 | 44 | 0.0 | 0.0 | 0.00 | 0.00 | 0.00 | 66 | 1010.1 |
| 20260505231057 | 0 | 44 | 0.0 | 0.0 | 0.00 | 0.00 | 0.00 | 66 | 1010.1 |
| 20260505230557 | 1 | 44 | 0.0 | 1.6 | 0.00 | 0.00 | 0.00 | 66 | 1010.0 |
| 20260505230121 | 1 | 44 | 0.0 | 1.6 | 0.00 | 0.00 | 0.00 | 66 | 1010.0 |
| 20260505225557 | 0 | 44 | 0.0 | 0.0 | 0.00 | 0.00 | 0.00 | 66 | 1010.1 |
| 20260505225159 | 0 | 44 | 0.0 | 0.0 | 0.00 | 0.00 | 0.00 | 66 | 1010.1 |
| 20260505224556 | 0 | 44 | 0.0 | 0.0 | 0.00 | 0.00 | 0.00 | 66 | 1010.0 |
| 20260505224055 | 0 | 44 | 0.0 | 0.0 | 0.00 | 0.00 | 0.00 | 67 | 1010.0 |
| 20260505223556 | 0 | 44 | 0.0 | 0.0 | 0.00 | 0.00 | 0.00 | 67 | 1010.1 |
| 20260505223057 | 0 | 44 | 0.0 | 0.0 | 0.00 | 0.00 | 0.00 | 67 | 1010.1 |
| 20260505222556 | 0 | 44 | 0.0 | 0.0 | 0.00 | 0.00 | 0.00 | 67 | 1010.1 |
| 20260505222054 | 0 | 44 | 0.0 | 0.0 | 0.00 | 0.00 | 0.00 | 67 | 1010.1 |
| 20260505221557 | 0 | 44 | 0.0 | 0.0 | 0.00 | 0.00 | 0.00 | 68 | 1010.1 |
| 20260505221050 | 1 | 44 | 0.0 | 0.0 | 0.00 | 0.00 | 0.00 | 66 | 1010.0 |
| 20260505220549 | 1 | 44 | 0.0 | 0.0 | 0.00 | 0.00 | 0.00 | 66 | 1010.0 |
| 20260505220048 | 1 | 44 | 0.0 | 0.0 | 0.00 | 0.00 | 0.00 | 64 | 1010.0 |
| 20260505215534 | 1 | 44 | 0.0 | 0.0 | 0.00 | 0.00 | 0.00 | 64 | 1009.9 |
| 20260505215030 | 1 | 44 | 0.0 | 0.0 | 0.00 | 0.00 | 0.00 | 63 | 1009.8 |
| 20260505214535 | 2 | 44 | 0.0 | 0.0 | 0.00 | 0.00 | 0.00 | 61 | 1009.9 |
| 20260505214032 | 2 | 44 | 0.0 | 0.0 | 0.00 | 0.00 | 0.00 | 60 | 1009.8 |
| 20260505213529 | 2 | 44 | 0.0 | 0.0 | 0.00 | 0.00 | 0.00 | 59 | 1009.8 |
| 20260505213033 | 2 | 44 | 0.0 | 8.0 | 0.00 | 0.00 | 0.00 | 59 | 1009.7 |
| 20260505212529 | 2 | 45 | 0.0 | 8.0 | 0.00 | 0.00 | 0.00 | 57 | 1009.8 |
| 20260505212030 | 2 | 40 | 0.0 | 0.0 | 0.00 | 0.00 | 0.00 | 58 | 1009.8 |
| 20260505211528 | 2 | 40 | 0.0 | 1.6 | 0.00 | 0.00 | 0.00 | 57 | 1009.7 |
| 20260505211028 | 2 | 40 | 0.0 | 1.6 | 0.00 | 0.00 | 0.00 | 57 | 1009.6 |
| 20260505210528 | 2 | 30 | 0.0 | 0.0 | 0.00 | 0.00 | 0.00 | 56 | 1009.6 |
| 20260505210025 | 3 | 46 | 0.0 | 0.0 | 0.00 | 0.00 | 0.00 | 54 | 1009.6 |
| 20260505205526 | 3 | 46 | 0.0 | 0.0 | 0.00 | 0.00 | 0.00 | 54 | 1009.6 |
| 20260505205026 | 3 | 46 | 0.0 | 0.0 | 0.00 | 0.00 | 0.00 | 54 | 1009.6 |
| 20260505204526 | 3 | 46 | 0.0 | 0.0 | 0.00 | 0.00 | 0.00 | 54 | 1009.5 |
| 20260505204023 | 3 | 46 | 0.0 | 0.0 | 0.00 | 0.00 | 0.00 | 51 | 1009.3 |
| 20260505203523 | 3 | 46 | 0.0 | 0.0 | 0.00 | 0.00 | 0.00 | 51 | 1009.2 |
| 20260505203023 | 3 | 355 | 0.0 | 0.0 | 0.00 | 0.00 | 0.00 | 51 | 1009.2 |
| 20260505202524 | 3 | 351 | 0.0 | 0.0 | 0.00 | 0.00 | 0.00 | 51 | 1009.1 |
| 20260505202024 | 3 | 360 | 0.0 | 0.0 | 0.00 | 0.00 | 0.00 | 52 | 1009.1 |
| 20260505201523 | 3 | 19 | 0.0 | 0.0 | 0.00 | 0.00 | 0.00 | 53 | 1009.2 |
| 20260505201023 | 3 | 20 | 0.0 | 0.0 | 0.00 | 0.00 | 0.00 | 55 | 1009.1 |
| 20260505200521 | 3 | 61 | 0.0 | 0.0 | 0.00 | 0.00 | 0.00 | 54 | 1009.1 |
| 20260505200033 | 3 | 9 | 0.0 | 0.0 | 0.00 | 0.00 | 0.00 | 53 | 1009.1 |
| 20260505195519 | 4 | 9 | 0.0 | 0.0 | 0.00 | 0.00 | 0.00 | 51 | 1009.0 |
| 20260505195119 | 5 | 9 | 0.0 | 0.0 | 0.00 | 0.00 | 0.00 | 49 | 1008.9 |
| 20260505194519 | 5 | 9 | 0.0 | 0.0 | 0.00 | 0.00 | 0.00 | 48 | 1008.9 |
| 20260505194018 | 5 | 9 | 0.0 | 0.0 | 0.00 | 0.00 | 0.00 | 46 | 1008.8 |
| 20260505193518 | 6 | 9 | 0.0 | 0.0 | 0.00 | 0.00 | 0.00 | 44 | 1008.8 |
| 20260505193017 | 6 | 9 | 0.0 | 0.0 | 0.00 | 0.00 | 0.00 | 43 | 1008.7 |
| 20260505192516 | 6 | 319 | 0.0 | 6.4 | 0.00 | 0.00 | 0.00 | 43 | 1008.6 |
| 20260505192015 | 6 | 344 | 0.0 | 6.4 | 0.00 | 0.00 | 0.00 | 42 | 1008.5 |
| 20260505191524 | 6 | 17 | 0.0 | 1.6 | 0.00 | 0.00 | 0.00 | 43 | 1008.5 |
| 20260505191014 | 6 | 344 | 0.0 | 1.6 | 0.00 | 0.00 | 0.00 | 42 | 1008.3 |
| 20260505190518 | 6 | 331 | 0.0 | 0.0 | 0.00 | 0.00 | 0.00 | 41 | 1008.2 |
| 20260505190012 | 6 | 329 | 0.0 | 4.8 | 0.00 | 0.00 | 0.00 | 41 | 1008.2 |
| 20260505185512 | 7 | 336 | 0.0 | 6.4 | 0.00 | 0.00 | 0.00 | 40 | 1008.2 |
| 20260505185012 | 7 | 325 | 0.0 | 17.7 | 0.00 | 0.00 | 0.00 | 39 | 1008.1 |
| 20260505184511 | 7 | 335 | 0.0 | 17.7 | 0.00 | 0.00 | 0.00 | 39 | 1008.2 |
| 20260505184010 | 7 | 325 | 0.0 | 3.2 | 0.00 | 0.00 | 0.00 | 38 | 1008.1 |
| 20260505183511 | 7 | 260 | 0.0 | 16.1 | 0.00 | 0.00 | 0.00 | 36 | 1008.0 |
| 20260505183012 | 7 | 312 | 0.0 | 16.1 | 0.00 | 0.00 | 0.00 | 37 | 1008.0 |
| 20260505182511 | 7 | 334 | 0.0 | 3.2 | 0.00 | 0.00 | 0.00 | 38 | 1008.0 |
| 20260505182010 | 7 | 329 | 0.0 | 3.2 | 0.00 | 0.00 | 0.00 | 39 | 1007.9 |
| 20260505181509 | 8 | 346 | 0.0 | 0.0 | 0.00 | 0.00 | 0.00 | 41 | 1007.9 |
| 20260505181008 | 8 | 324 | 0.0 | 1.6 | 0.00 | 0.00 | 0.00 | 39 | 1007.9 |
| 20260505180508 | 8 | 349 | 0.0 | 9.7 | 0.00 | 0.00 | 0.00 | 40 | 1007.8 |